Weather History for Lima, OH

Change the Weather History Date:

Tuesday, October 1, 2013

  Actual Average (KFDY) Record (KFDY)
Temperature  
Mean Temperature 67 °F -  
Max Temperature 77 °F 69 °F 87 °F (1952)
Min Temperature 59 °F 48 °F 33 °F (2003)
Cooling Degree Days 2    
Growing Degree Days 17 (Base 50)    
Moisture  
Dew Point 59 °F    
Average Humidity 76    
Maximum Humidity 90    
Minimum Humidity 56    
Precipitation  
Precipitation 0.01 in - - ()
Sea Level Pressure  
Sea Level Pressure 30.03 in    
Wind  
Wind Speed 7 mph (SSW)    
Max Wind Speed 16 mph    
Max Gust Speed 22 mph    
Visibility 7 miles    
Events      
Averages and records for this station are not official NWS values.
T = Trace of Precipitation, MM = Missing Value Source: NWS Daily Summary

Daily Weather History Graph

Daily Weather History Graph

Search for Another Location

Airport:

Trip Planner

Search our weather history database for the weather conditions in past years. The results will help you decide how hot, cold, wet, or windy it might be!

Date:

Astronomy

Oct. 01, 2013 Rise Set
Actual Time 7:32 AM EDT 7:17 PM EDT
Civil Twilight 7:05 AM EDT 7:45 PM EDT
Nautical Twilight 6:33 AM EDT 8:16 PM EDT
Astronomical Twilight 6:01 AM EDT 8:48 PM EDT
Moon 4:05 AM EDT (10/1) 5:21 PM EDT (10/1)
Length of Visible Light 12h 39m
Length of Day
11h 44m
Waning Crescent, 12% of the Moon is Illuminated
Oct 1
Waning Crescent
Oct 4
New
Oct 11
First Quarter
Oct 18
Full
Oct 26
Last Quarter

Hourly Weather History & Observations

Time (EDT) Temp. Dew Point Humidity Pressure Visibility Wind Dir Wind Speed Gust Speed Precip Events Conditions
12:53 AM 62.1 °F 57.9 °F 86% 29.99 in 5.0 mi South 6.9 mph - N/A   Clear
1:53 AM 62.1 °F 57.9 °F 86% 30.00 in 5.0 mi SSW 5.8 mph - N/A   Clear
2:53 AM 62.1 °F 57.9 °F 86% 30.00 in 4.0 mi South 6.9 mph - N/A   Clear
3:53 AM 61.0 °F 57.9 °F 90% 30.00 in 4.0 mi SSW 5.8 mph - N/A   Clear
4:53 AM 61.0 °F 57.9 °F 90% 30.00 in 4.0 mi SSW 4.6 mph - N/A   Clear
5:53 AM 60.1 °F 57.0 °F 90% 30.02 in 4.0 mi SW 3.5 mph - N/A   Clear
6:53 AM 59.0 °F 55.9 °F 90% 30.04 in 3.0 mi South 4.6 mph - N/A   Clear
7:16 AM 59.0 °F 55.4 °F 88% 30.05 in 2.5 mi South 4.6 mph - N/A   Clear
7:36 AM 59.0 °F 55.4 °F 88% 30.05 in 1.5 mi South 3.5 mph - N/A   Clear
7:53 AM 59.0 °F 55.9 °F 90% 30.04 in 1.8 mi South 5.8 mph - N/A   Clear
8:12 AM 60.8 °F 57.2 °F 88% 30.06 in 2.0 mi South 8.1 mph - N/A   Partly Cloudy
8:53 AM 63.0 °F 59.0 °F 87% 30.05 in 2.5 mi South 6.9 mph - N/A   Partly Cloudy
9:11 AM 64.4 °F 60.8 °F 88% 30.06 in 3.0 mi South 6.9 mph - N/A   Mostly Cloudy
9:53 AM 66.9 °F 62.1 °F 84% 30.06 in 4.0 mi SSW 6.9 mph - N/A   Haze
10:53 AM 71.1 °F 61.0 °F 70% 30.06 in 10.0 mi SSW 10.4 mph - N/A   Mostly Cloudy
11:11 AM 71.6 °F 60.8 °F 69% 30.07 in 10.0 mi SW 11.5 mph - N/A   Overcast
11:22 AM 71.6 °F 60.8 °F 69% 30.07 in 10.0 mi SW 11.5 mph - N/A   Mostly Cloudy
11:53 AM 72.0 °F 60.1 °F 66% 30.05 in 10.0 mi SW 15.0 mph - N/A   Scattered Clouds
12:53 PM 73.0 °F 60.1 °F 64% 30.04 in 9.0 mi WSW 12.7 mph - 0.01 in   Overcast
1:53 PM 75.9 °F 61.0 °F 60% 30.03 in 10.0 mi WSW 15.0 mph 18.4 mph N/A   Mostly Cloudy
2:53 PM 75.0 °F 60.1 °F 60% 30.02 in 10.0 mi SW 16.1 mph 21.9 mph N/A   Mostly Cloudy
3:53 PM 75.0 °F 59.0 °F 57% 30.01 in 10.0 mi SW 10.4 mph - N/A   Mostly Cloudy
4:53 PM 75.9 °F 60.1 °F 58% 30.00 in 10.0 mi West 13.8 mph 18.4 mph N/A   Scattered Clouds
5:53 PM 75.9 °F 59.0 °F 56% 29.99 in 10.0 mi WSW 11.5 mph - N/A   Partly Cloudy
6:53 PM 73.0 °F 59.0 °F 61% 29.99 in 10.0 mi WSW 8.1 mph - N/A   Clear
7:53 PM 70.0 °F 59.0 °F 68% 30.00 in 10.0 mi SSW 4.6 mph - N/A   Clear
8:53 PM 66.9 °F 57.9 °F 73% 30.01 in 10.0 mi SW 3.5 mph - N/A   Clear
9:53 PM 66.9 °F 57.9 °F 73% 30.02 in 10.0 mi SSW 6.9 mph - N/A   Clear
10:53 PM 66.0 °F 57.9 °F 75% 30.02 in 9.0 mi SSW 6.9 mph - N/A   Clear
11:53 PM 64.9 °F 57.9 °F 78% 30.02 in 8.0 mi SSW 8.1 mph - N/A   Clear